Regional Weather Roundup
Issued by NWS Northern Indiana

Home | Current Version | Previous Version | Graphics & Text | Print | Product List | Glossary On
Versions: 1 2 3 4 5 6 7 8 9 10 11 12 13 14 15 16 17 18 19 20 21 22 23 24 25 26 27 28 29 30 31 32 33 34 35 36 37 38 39 40 41 42 43 44 45 46 47 48 49 50
000
ASUS43 KIWX 180900
RWRIWX

KIWX WEATHER ROUNDUP
NATIONAL WEATHER SERVICE NORTHERN INDIANA
400 AM EST SAT NOV 18 2017

NOTE: "FAIR" INDICATES FEW OR NO CLOUDS BELOW 12,000 FEET WITH NO
SIGNIFICANT WEATHER AND/OR OBSTRUCTIONS TO VISIBILITY.

* THESE STATIONS ARE NOT UNDER NWS QUALITY CONTROL. THEY ALSO MAY NOT
  REPORT WEATHER SUCH AS PRECIPITATION OR FOG.

INZ001>027-181000-
NORTHERN INDIANA

CITY           SKY/WX    TMP DP  RH WIND       PRES   REMARKS
VALPARAISO     CLOUDY    47  45  93 N7        29.53F FOG
MICHIGAN CITY* DRIZZLE   43  43 100 CALM      29.54F
KNOX*          CLOUDY    45  43  93 SE6       29.53F
SOUTH BEND     CLOUDY    43  43 100 CALM      29.55F FOG
GOSHEN         CLOUDY    46  42  86 CALM      29.53F
MONTICELLO*    LGT RAIN  51  48  92 S6        29.51F
AUBURN*        DRIZZLE   45  43  93 CALM      29.56F
FORT WAYNE     LGT RAIN  50  46  86 SW8       29.56F

$$
INZ028>050-181000-
CENTRAL INDIANA

CITY           SKY/WX    TMP DP  RH WIND       PRES   REMARKS
LAFAYETTE      LGT RAIN  54  50  86 S7G17     29.51F
KOKOMO*        LGT RAIN  49  46  90 S9        29.54F
MUNCIE*        LGT RAIN  53  44  71 S13G21    29.56F
INDIANAPOLIS   LGT RAIN  56  49  77 S10       29.57F

$$
MIZ043>046-050>051-056>058-064>065-071>073-077>080-181000-
SOUTHWEST LOWER MICHIGAN

CITY           SKY/WX    TMP DP  RH WIND       PRES   REMARKS
BATTLE CREEK   CLOUDY    42  42 100 S8        29.55F FOG
BENTON HARBOR  CLOUDY    44  42  93 S5        29.53F FOG
COLDWATER*     CLOUDY    43  43 100 CALM      29.56F FOG
HILLSDALE*     DRIZZLE   43  41  93 S3        29.56F
HOLLAND        CLOUDY    44  43  96 S7        29.52F FOG
GRAND RAPIDS   CLOUDY    43  43 100 S13       29.52F FOG
KALAMAZOO      CLOUDY    43  40  89 S6        29.55F FOG
THREE RIVERS*  CLOUDY    43  42  97 CALM      29.55F FOG

$$
OHZ001>008-015>018-024>025-181000-
NORTHWEST OHIO

CITY           SKY/WX    TMP DP  RH WIND       PRES   REMARKS
DEFIANCE       CLOUDY    45  42  89 S7        29.57F
FINDLAY        LGT RAIN  47  42  83 S9        29.59F
TOLEDO EXPRESS CLOUDY    45  45 100 S8        29.57F
TOLEDO METCALF CLOUDY    44  41  89 S13       29.59F
LIMA           LGT RAIN  48  43  82 S16G26    29.59F

$$
AND FOR LAKE MICHIGAN COASTAL AND OPEN LAKE BUOY OBSERVATIONS

STATION/POSITION TEMP    WIND        PRES    VSBY  WAVE
                 AIR SEA DIR/SP/G                  HT/PER
                 (F)     (DEG/KT/KT) (MB)    (MI)  (FT/S)
MICHIGAN CITY     44     110/  4/  5   N/A
BURNS HARBOR      47        CALM     1001.0F
SAINT JOSEPH      44     140/  2/  4 1002.4
SOUTH LAKE BUOY   46 49  280/  8/ 10 1000.8          4/ 6

$$
&&



USA.gov is the U.S. government's official web portal to all federal, state and local government web resources and services.